DEJRH EDHL-ETNL

Flight info

Callsign DEJRH
Flight time 0h 26m
Altitude 7000
Route RAMAR2A RAMAR L23 TAGOB DCT
Aircraft PA24/L-SYDFGR/S

Departure

Time 2026-05-05 18:27
Airport Lübeck Blankensee Airport (EDHL)

Arrival

Time 2026-05-05 18:54
Airport Rostock-Laage Airport (ETNL)
Time Latitude Longitude Altitude Speed Heading
2026-05-05 18:18 53.80552 10.70461 56 ft 0 kts 134°
2026-05-05 18:22 53.80567 10.70474 56 ft 3 kts 341°
2026-05-05 18:23 53.80600 10.70424 56 ft 8 kts 271°
2026-05-05 18:23 53.80566 10.70337 56 ft 12 kts 210°
2026-05-05 18:23 53.80484 10.70398 56 ft 15 kts 144°
2026-05-05 18:23 53.80420 10.70472 56 ft 1 kts 144°
2026-05-05 18:26 53.80375 10.70527 56 ft 15 kts 145°
2026-05-05 18:26 53.80299 10.70611 55 ft 9 kts 146°
2026-05-05 18:26 53.80292 10.70660 55 ft 0 kts 70°
2026-05-05 18:27 53.80375 10.71097 67 ft 75 kts 72°
2026-05-05 18:27 53.80547 10.72059 295 ft 93 kts 71°
2026-05-05 18:27 53.80718 10.73121 693 ft 93 kts 72°
2026-05-05 18:27 53.80896 10.74179 1044 ft 96 kts 72°
2026-05-05 18:28 53.81147 10.76355 1643 ft 95 kts 72°
2026-05-05 18:28 53.81378 10.77423 1884 ft 95 kts 67°
2026-05-05 18:28 53.81613 10.78475 2131 ft 98 kts 68°
2026-05-05 18:29 53.81853 10.79536 2397 ft 98 kts 67°
2026-05-05 18:29 53.82089 10.80634 2674 ft 97 kts 69°
2026-05-05 18:29 53.82324 10.81703 2955 ft 98 kts 69°
2026-05-05 18:29 53.82467 10.82837 3214 ft 104 kts 91°
2026-05-05 18:30 53.82361 10.84053 3516 ft 103 kts 96°
2026-05-05 18:30 53.82245 10.85269 3777 ft 107 kts 96°
2026-05-05 18:30 53.82124 10.86514 4093 ft 105 kts 97°
2026-05-05 18:30 53.81997 10.87738 4366 ft 110 kts 96°
2026-05-05 18:31 53.81879 10.89029 4672 ft 110 kts 97°
2026-05-05 18:31 53.81763 10.90325 4970 ft 113 kts 96°
2026-05-05 18:31 53.81641 10.91654 5284 ft 114 kts 99°
2026-05-05 18:31 53.81504 10.93001 5581 ft 118 kts 98°
2026-05-05 18:32 53.81364 10.94370 5880 ft 120 kts 99°
2026-05-05 18:32 53.81251 10.95787 6179 ft 122 kts 97°
2026-05-05 18:32 53.81122 10.97241 6462 ft 125 kts 97°
2026-05-05 18:32 53.81023 10.98696 6715 ft 128 kts 96°
2026-05-05 18:33 53.80913 11.00231 6940 ft 131 kts 97°
2026-05-05 18:33 53.80796 11.01738 7136 ft 138 kts 99°
2026-05-05 18:33 53.80649 11.03571 6952 ft 162 kts 97°
2026-05-05 18:33 53.80526 11.05517 6922 ft 169 kts 97°
2026-05-05 18:34 53.80370 11.07491 6943 ft 169 kts 99°
2026-05-05 18:34 53.80165 11.09435 6937 ft 168 kts 99°
2026-05-05 18:34 53.79969 11.11384 6927 ft 167 kts 101°
2026-05-05 18:34 53.79752 11.13321 6926 ft 167 kts 100°
2026-05-05 18:35 53.79555 11.15232 6927 ft 167 kts 99°
2026-05-05 18:35 53.79369 11.17170 6932 ft 167 kts 99°
2026-05-05 18:35 53.79203 11.19119 6929 ft 167 kts 96°
2026-05-05 18:35 53.79048 11.21063 6931 ft 166 kts 99°
2026-05-05 18:36 53.78858 11.22976 6929 ft 167 kts 98°
2026-05-05 18:36 53.78703 11.24921 6927 ft 167 kts 97°
2026-05-05 18:36 53.78560 11.26873 6926 ft 166 kts 98°
2026-05-05 18:36 53.78419 11.28792 6928 ft 167 kts 96°
2026-05-05 18:37 53.78274 11.30747 6925 ft 167 kts 97°
2026-05-05 18:37 53.78130 11.32694 6925 ft 167 kts 94°
2026-05-05 18:37 53.78086 11.34650 6925 ft 166 kts 88°
2026-05-05 18:37 53.78260 11.36587 6926 ft 166 kts 79°
2026-05-05 18:38 53.78524 11.38465 6927 ft 166 kts 76°
2026-05-05 18:38 53.78776 11.40379 6930 ft 166 kts 76°
2026-05-05 18:38 53.79082 11.42272 6927 ft 166 kts 73°
2026-05-05 18:38 53.79394 11.44134 6926 ft 166 kts 75°
2026-05-05 18:39 53.79666 11.46040 6930 ft 166 kts 77°
2026-05-05 18:39 53.79919 11.47956 6929 ft 166 kts 77°
2026-05-05 18:39 53.80199 11.49838 6927 ft 166 kts 74°
2026-05-05 18:39 53.80509 11.51727 6929 ft 166 kts 73°
2026-05-05 18:40 53.80791 11.53620 6929 ft 166 kts 78°
2026-05-05 18:40 53.81016 11.55513 6928 ft 166 kts 79°
2026-05-05 18:40 53.81271 11.57422 6928 ft 166 kts 75°
2026-05-05 18:40 53.81611 11.59285 6926 ft 164 kts 72°
2026-05-05 18:41 53.81915 11.61103 6784 ft 159 kts 75°
2026-05-05 18:41 53.82184 11.62913 6533 ft 160 kts 76°
2026-05-05 18:41 53.82446 11.64739 6354 ft 157 kts 75°
2026-05-05 18:41 53.82701 11.66537 6137 ft 157 kts 75°
2026-05-05 18:42 53.82954 11.68333 5907 ft 156 kts 74°
2026-05-05 18:42 53.83213 11.70106 5703 ft 153 kts 76°
2026-05-05 18:42 53.83437 11.71850 5471 ft 153 kts 77°
2026-05-05 18:42 53.83650 11.73600 5269 ft 151 kts 77°
2026-05-05 18:43 53.83854 11.75338 5067 ft 149 kts 78°
2026-05-05 18:43 53.84085 11.77048 4868 ft 148 kts 75°
2026-05-05 18:43 53.84379 11.78711 4677 ft 146 kts 71°
2026-05-05 18:43 53.84676 11.80327 4487 ft 145 kts 74°
2026-05-05 18:44 53.84919 11.81983 4297 ft 144 kts 76°
2026-05-05 18:44 53.85141 11.83632 4125 ft 144 kts 75°
2026-05-05 18:44 53.85387 11.85251 4048 ft 142 kts 75°
2026-05-05 18:44 53.85603 11.86895 4015 ft 142 kts 77°
2026-05-05 18:45 53.85798 11.88569 4020 ft 146 kts 77°
2026-05-05 18:45 53.85998 11.90260 4019 ft 149 kts 74°
2026-05-05 18:45 53.86592 11.91645 4013 ft 151 kts 33°
2026-05-05 18:45 53.87603 11.92075 3988 ft 154 kts
2026-05-05 18:46 53.88669 11.92089 3929 ft 151 kts 360°
2026-05-05 18:46 53.89756 11.92052 3534 ft 161 kts
2026-05-05 18:46 53.90864 11.92149 3345 ft 153 kts
2026-05-05 18:46 53.91883 11.92430 3162 ft 150 kts 14°
2026-05-05 18:47 53.92917 11.92744 2988 ft 145 kts 13°
2026-05-05 18:47 53.93873 11.93098 2991 ft 137 kts 26°
2026-05-05 18:47 53.94508 11.94198 2887 ft 138 kts 66°
2026-05-05 18:47 53.94567 11.95857 2654 ft 145 kts 96°
2026-05-05 18:48 53.94366 11.97531 2418 ft 146 kts 100°
2026-05-05 18:48 53.94188 11.98639 2284 ft 145 kts 101°
2026-05-05 18:48 53.93935 12.00259 2085 ft 141 kts 97°
2026-05-05 18:48 53.93790 12.01860 2011 ft 131 kts 93°
2026-05-05 18:49 53.93687 12.03323 2033 ft 120 kts 92°
2026-05-05 18:49 53.93596 12.04727 2024 ft 120 kts 92°
2026-05-05 18:49 53.93509 12.06123 2051 ft 116 kts 92°
2026-05-05 18:49 53.93429 12.07464 2055 ft 114 kts 91°
2026-05-05 18:50 53.93339 12.08814 2026 ft 115 kts 92°
2026-05-05 18:50 53.93227 12.10159 1985 ft 116 kts 94°
2026-05-05 18:50 53.93103 12.11507 1968 ft 115 kts 94°
2026-05-05 18:50 53.92995 12.12893 1888 ft 119 kts 94°
2026-05-05 18:51 53.92888 12.14258 1871 ft 116 kts 93°
2026-05-05 18:51 53.92786 12.15625 1686 ft 115 kts 93°
2026-05-05 18:51 53.92682 12.16959 1361 ft 112 kts 93°
2026-05-05 18:51 53.92583 12.18205 1093 ft 102 kts 94°
2026-05-05 18:52 53.92491 12.19364 937 ft 97 kts 94°
2026-05-05 18:52 53.92407 12.20447 840 ft 88 kts 94°
2026-05-05 18:52 53.92323 12.21444 738 ft 82 kts 95°
2026-05-05 18:52 53.92249 12.22363 679 ft 74 kts 94°
2026-05-05 18:53 53.92182 12.23202 552 ft 71 kts 95°
2026-05-05 18:53 53.92120 12.24018 405 ft 68 kts 94°
2026-05-05 18:53 53.92054 12.24808 304 ft 67 kts 96°
2026-05-05 18:53 53.91997 12.25571 212 ft 65 kts 95°
2026-05-05 18:54 53.91939 12.26305 143 ft 55 kts 94°
2026-05-05 18:54 53.91902 12.26791 137 ft 30 kts 99°
2026-05-05 18:54 53.91875 12.27120 134 ft 27 kts 97°
2026-05-05 18:54 53.91812 12.27197 134 ft 12 kts 185°
2026-05-05 18:55 53.91736 12.27179 134 ft 10 kts 187°
2026-05-05 18:55 53.91667 12.27174 134 ft 10 kts 148°
2026-05-05 18:55 53.91645 12.27306 133 ft 15 kts 101°
2026-05-05 18:55 53.91638 12.27436 132 ft 8 kts 104°
2026-05-05 18:56 53.91623 12.27586 129 ft 14 kts 97°
2026-05-05 18:56 53.91609 12.27753 130 ft 14 kts 98°
2026-05-05 18:56 53.91596 12.27926 128 ft 16 kts 97°
2026-05-05 18:56 53.91577 12.28159 127 ft 23 kts 97°
2026-05-05 18:57 53.91556 12.28425 125 ft 22 kts 98°
2026-05-05 18:57 53.91533 12.28681 123 ft 22 kts 97°
2026-05-05 18:57 53.91477 12.28792 122 ft 10 kts 178°
2026-05-05 18:57 53.91436 12.28792 120 ft 0 kts 195°
2026-05-05 18:58 53.91432 12.28798 121 ft 0 kts 24°